THORAD AGENA D DEB

Satellite information

Favourite Embed

Satellite Type and Status

DEBRISIN ORBIT

Key statistics

Satellite THORAD AGENA D DEB at a glance.

Uptime

20429

Days in orbit

Revolutions

≈ 14.6

Per day

Orbit

LEO

Low Earth Orbit

Inclination

70.1

Latest

Satellite identification and parameters

Extended collection of information and parameters for THORAD AGENA D DEB.

Object identification

Identified? True

Debris? True

Object name: THORAD AGENA D DEB

International designator: 1969-082EK

Object number (NORAD): 4438

Object ID (CCSDS): 4438

Country: UNITED STATES OF AMERICA (US)

Current information (Y/N): Y

RCS size: SMALL

Orbital parameters

Period: 98.313 minutes

Inclination: 70.0967 deg

SMA: 7056.167 km

Apoapsis: 712.337 km

Periapsis: 643.726 km

RAAN: 199.5099 deg

Eccentricy: 0.00486176

Argument of periapsis: 220.3516 deg

Mean anomaly: 139.4016 deg

Mean motion: 14.64702814 rev/day

Mean motion (dot): 0.00004216 rev/day2

B* drag term: 0.00079032349 1/REarth

Two-line elements (TLE)

Creation date: Sept. 4, 2025, 10:13 a.m.

Reference frame: TEME

Reference center: EARTH

Epoch: Sept. 4, 2025, 6:12 a.m. UTC

TLE line 0: 0 THORAD AGENA D DEB

TLE line 1: 1 04438U 69082EK 25247.25857622 .00004216 00000-0 79032-3 0 9998

TLE line 2: 2 04438 70.0967 199.5099 0048618 220.3516 139.4016 14.64702814932788

Live tracking on map

Real-time ground track for satellite THORAD AGENA D DEB.

In-orbit conjunctions

A list of the most updated potential collisions computed for object THORAD AGENA D DEB.

Target Orbit TCA Probability of collision Miss distance Type
IRIDIUM 33 DEB LEO 2025-08-14 01:45:56 0.0001094156 391.0 (m) DEBRIS
CZ-4 DEB SSO 2025-03-04 21:40:41 0.0001498834 144.0 (m) DEBRIS

Associated space launch

Poppy was the follow-on ELINT system, which succeeded the Grab ELINT satellite system.

THORAD AGENA D DEB was lifted into orbit during the mission ‘Thorad SLV-2G Agena D | Poppy 8A,B,C,D’, on board a Thorad SLV-2G Agena D space rocket.

The launch took place on Sept. 30, 1969, 1:40 p.m. from Space Launch Complex 1W.

For more information about the launch, click the button.

Launch to space Thorad SLV-2G Agena D | Poppy 8A,B,C,D
Thorad SLV-2G Agena D | Poppy 8A,B,C,D

Agency: N/A

Status: Launch Successful

Launch date: Sept. 30, 1969, 1:40 p.m. UTC

Rocket: Thorad SLV-2G Agena D

Launch pad: Space Launch Complex 1W

Location: Vandenberg SFB, CA, USA

...

Latest news about this satellite

There are no fresh news available about this satellite. Check back as we update our databases every day.


Newsletter sign-up

Weekly statistics, charts and insights to help you stay on top of the space industry.